{"data":{"norad_id":61513,"epoch":"2026-05-24T23:55:02.534304Z","epoch_age_seconds":76038,"freshness":"FRESH","line1":"1 61513U 24183E   26144.99655711  .00000039  00000+0  13438-4 0  9998","line2":"2 61513  53.1609 148.1377 0001159  89.5889 270.5244 15.30191089 91333","mean_motion":15.30191089,"eccentricity":0.0001159,"inclination_deg":53.1609,"raan_deg":148.1377,"arg_perigee_deg":89.5889,"mean_anomaly_deg":270.5244,"bstar":1.3438e-5,"rev_number":9133,"period_min":94.105893724754,"perigee_km":474.44736959965,"apogee_km":476.0359827768,"semimajor_km":6853.3786761882,"source":"CELESTRAK","updated_at":"2026-05-25T13:38:19.369071Z"}}